owner,sensor,date,latitude,longitude,vertical_datum,sea_water_temperature,qcFlag
Amerada Hess,ioos:station:wmo:42907:2,2020-09-01T00:09:00Z,27.1318,-90.3386,11.0,28.6,11111222
Amerada Hess,ioos:station:wmo:42907:2,2020-09-01T00:19:00Z,27.1318,-90.3386,11.0,28.7,11111222
Amerada Hess,ioos:station:wmo:42907:2,2020-09-01T00:29:00Z,27.1318,-90.3386,11.0,28.7,11111222
Amerada Hess,ioos:station:wmo:42907:2,2020-09-01T00:39:00Z,27.1318,-90.3386,11.0,28.6,11111222
Amerada Hess,ioos:station:wmo:42907:2,2020-09-01T00:49:00Z,27.1318,-90.3386,11.0,28.7,11111222
Amerada Hess,ioos:station:wmo:42907:2,2020-09-01T00:59:00Z,27.1318,-90.3386,11.0,28.6,11111222
Amerada Hess,ioos:station:wmo:42907:2,2020-09-01T01:09:00Z,27.1318,-90.3386,11.0,28.7,11111222
Amerada Hess,ioos:station:wmo:42907:2,2020-09-01T01:19:00Z,27.1318,-90.3386,11.0,28.6,11111222
Amerada Hess,ioos:station:wmo:42907:2,2020-09-01T01:29:00Z,27.1318,-90.3386,11.0,28.6,11111222
Amerada Hess,ioos:station:wmo:42907:2,2020-09-01T01:39:00Z,27.1318,-90.3386,11.0,28.6,11111222
Amerada Hess,ioos:station:wmo:42907:2,2020-09-01T01:49:00Z,27.1318,-90.3386,11.0,28.4,11111222
Amerada Hess,ioos:station:wmo:42907:2,2020-09-01T01:59:00Z,27.1318,-90.3386,11.0,28.4,11111222
Amerada Hess,ioos:station:wmo:42907:2,2020-09-01T02:09:00Z,27.1318,-90.3386,11.0,28.3,11111222
Amerada Hess,ioos:station:wmo:42907:2,2020-09-01T02:19:00Z,27.1318,-90.3386,11.0,28.3,11111222
Amerada Hess,ioos:station:wmo:42907:2,2020-09-01T02:29:00Z,27.1318,-90.3386,11.0,28.3,11111222
Amerada Hess,ioos:station:wmo:42907:2,2020-09-01T02:39:00Z,27.1318,-90.3386,11.0,28.3,11111222
Amerada Hess,ioos:station:wmo:42907:2,2020-09-01T02:49:00Z,27.1318,-90.3386,11.0,28.3,11111222
Amerada Hess,ioos:station:wmo:42907:2,2020-09-01T02:59:00Z,27.1318,-90.3386,11.0,28.3,11111222
Amerada Hess,ioos:station:wmo:42907:2,2020-09-01T03:09:00Z,27.1318,-90.3386,11.0,28.4,11111222
Amerada Hess,ioos:station:wmo:42907:2,2020-09-01T03:19:00Z,27.1318,-90.3386,11.0,28.4,11111222
Amerada Hess,ioos:station:wmo:42907:2,2020-09-01T03:29:00Z,27.1318,-90.3386,11.0,28.4,11111222
Amerada Hess,ioos:station:wmo:42907:2,2020-09-01T03:39:00Z,27.1318,-90.3386,11.0,28.4,11111222
Amerada Hess,ioos:station:wmo:42907:2,2020-09-01T03:49:00Z,27.1318,-90.3386,11.0,28.4,11111222
Amerada Hess,ioos:station:wmo:42907:2,2020-09-01T03:59:00Z,27.1318,-90.3386,11.0,28.4,11111222
Amerada Hess,ioos:station:wmo:42907:2,2020-09-01T04:09:00Z,27.1318,-90.3386,11.0,28.4,11111222
Amerada Hess,ioos:station:wmo:42907:2,2020-09-01T04:19:00Z,27.1318,-90.3386,11.0,28.5,11111222
Amerada Hess,ioos:station:wmo:42907:2,2020-09-01T04:29:00Z,27.1318,-90.3386,11.0,28.5,11111222
Amerada Hess,ioos:station:wmo:42907:2,2020-09-01T04:39:00Z,27.1318,-90.3386,11.0,28.5,11111222
Amerada Hess,ioos:station:wmo:42907:2,2020-09-01T04:49:00Z,27.1318,-90.3386,11.0,28.5,11111222
Amerada Hess,ioos:station:wmo:42907:2,2020-09-01T04:59:00Z,27.1318,-90.3386,11.0,28.4,11111222
Amerada Hess,ioos:station:wmo:42907:2,2020-09-01T05:09:00Z,27.1318,-90.3386,11.0,28.4,11111222
Amerada Hess,ioos:station:wmo:42907:2,2020-09-01T05:19:00Z,27.1318,-90.3386,11.0,28.5,11111222
Amerada Hess,ioos:station:wmo:42907:2,2020-09-01T05:29:00Z,27.1318,-90.3386,11.0,28.4,11111222
Amerada Hess,ioos:station:wmo:42907:2,2020-09-01T05:39:00Z,27.1318,-90.3386,11.0,28.5,11111222
Amerada Hess,ioos:station:wmo:42907:2,2020-09-01T05:49:00Z,27.1318,-90.3386,11.0,28.6,11111222
Amerada Hess,ioos:station:wmo:42907:2,2020-09-01T05:59:00Z,27.1318,-90.3386,11.0,28.5,11111222
Amerada Hess,ioos:station:wmo:42907:2,2020-09-01T06:09:00Z,27.1318,-90.3386,11.0,28.5,11111222
Amerada Hess,ioos:station:wmo:42907:2,2020-09-01T06:19:00Z,27.1318,-90.3386,11.0,28.4,11111222
Amerada Hess,ioos:station:wmo:42907:2,2020-09-01T06:29:00Z,27.1318,-90.3386,11.0,28.5,11111222
Amerada Hess,ioos:station:wmo:42907:2,2020-09-01T06:39:00Z,27.1318,-90.3386,11.0,28.5,11111222
Amerada Hess,ioos:station:wmo:42907:2,2020-09-01T06:49:00Z,27.1318,-90.3386,11.0,28.4,11111222
Amerada Hess,ioos:station:wmo:42907:2,2020-09-01T06:59:00Z,27.1318,-90.3386,11.0,28.6,11111222
Amerada Hess,ioos:station:wmo:42907:2,2020-09-01T07:09:00Z,27.1318,-90.3386,11.0,28.6,11111222
Amerada Hess,ioos:station:wmo:42907:2,2020-09-01T07:19:00Z,27.1318,-90.3386,11.0,28.7,11111222
Amerada Hess,ioos:station:wmo:42907:2,2020-09-01T07:29:00Z,27.1318,-90.3386,11.0,28.7,11111222
Amerada Hess,ioos:station:wmo:42907:2,2020-09-01T07:39:00Z,27.1318,-90.3386,11.0,28.7,11111222
Amerada Hess,ioos:station:wmo:42907:2,2020-09-01T07:49:00Z,27.1318,-90.3386,11.0,28.8,11111222
Amerada Hess,ioos:station:wmo:42907:2,2020-09-01T07:59:00Z,27.1318,-90.3386,11.0,28.8,11111222
Amerada Hess,ioos:station:wmo:42907:2,2020-09-01T08:09:00Z,27.1318,-90.3386,11.0,28.8,11111222
Amerada Hess,ioos:station:wmo:42907:2,2020-09-01T08:19:00Z,27.1318,-90.3386,11.0,28.7,11111222
Amerada Hess,ioos:station:wmo:42907:2,2020-09-01T08:29:00Z,27.1318,-90.3386,11.0,28.8,11111222
Amerada Hess,ioos:station:wmo:42907:2,2020-09-01T08:39:00Z,27.1318,-90.3386,11.0,28.7,11111222
Amerada Hess,ioos:station:wmo:42907:2,2020-09-01T08:49:00Z,27.1318,-90.3386,11.0,28.7,11111222
Amerada Hess,ioos:station:wmo:42907:2,2020-09-01T08:59:00Z,27.1318,-90.3386,11.0,28.7,11111222
Amerada Hess,ioos:station:wmo:42907:2,2020-09-01T09:09:00Z,27.1318,-90.3386,11.0,28.7,11111222
Amerada Hess,ioos:station:wmo:42907:2,2020-09-01T09:19:00Z,27.1318,-90.3386,11.0,28.7,11111222
Amerada Hess,ioos:station:wmo:42907:2,2020-09-01T09:29:00Z,27.1318,-90.3386,11.0,28.7,11111222
Amerada Hess,ioos:station:wmo:42907:2,2020-09-01T09:39:00Z,27.1318,-90.3386,11.0,28.7,11111222
Amerada Hess,ioos:station:wmo:42907:2,2020-09-01T09:49:00Z,27.1318,-90.3386,11.0,28.6,11111222
Amerada Hess,ioos:station:wmo:42907:2,2020-09-01T09:59:00Z,27.1318,-90.3386,11.0,28.7,11111222
Amerada Hess,ioos:station:wmo:42907:2,2020-09-01T10:09:00Z,27.1318,-90.3386,11.0,28.9,11111222
Amerada Hess,ioos:station:wmo:42907:2,2020-09-01T10:19:00Z,27.1318,-90.3386,11.0,28.8,11111222
Amerada Hess,ioos:station:wmo:42907:2,2020-09-01T10:29:00Z,27.1318,-90.3386,11.0,28.8,11111222
Amerada Hess,ioos:station:wmo:42907:2,2020-09-01T10:39:00Z,27.1318,-90.3386,11.0,28.9,11111222
Amerada Hess,ioos:station:wmo:42907:2,2020-09-01T10:49:00Z,27.1318,-90.3386,11.0,28.9,11111222
Amerada Hess,ioos:station:wmo:42907:2,2020-09-01T10:59:00Z,27.1318,-90.3386,11.0,28.9,11111222
Amerada Hess,ioos:station:wmo:42907:2,2020-09-01T11:09:00Z,27.1318,-90.3386,11.0,28.9,11111222
Amerada Hess,ioos:station:wmo:42907:2,2020-09-01T11:19:00Z,27.1318,-90.3386,11.0,28.8,11111222
Amerada Hess,ioos:station:wmo:42907:2,2020-09-01T11:29:00Z,27.1318,-90.3386,11.0,28.9,11111222
Amerada Hess,ioos:station:wmo:42907:2,2020-09-01T11:39:00Z,27.1318,-90.3386,11.0,28.8,11111222
Amerada Hess,ioos:station:wmo:42907:2,2020-09-01T11:49:00Z,27.1318,-90.3386,11.0,28.7,11111222
Amerada Hess,ioos:station:wmo:42907:2,2020-09-01T11:59:00Z,27.1318,-90.3386,11.0,28.7,11111222
Amerada Hess,ioos:station:wmo:42907:2,2020-09-01T12:09:00Z,27.1318,-90.3386,11.0,28.8,11111222
Amerada Hess,ioos:station:wmo:42907:2,2020-09-01T12:19:00Z,27.1318,-90.3386,11.0,28.8,11111222
Amerada Hess,ioos:station:wmo:42907:2,2020-09-01T12:29:00Z,27.1318,-90.3386,11.0,28.7,11111222
Amerada Hess,ioos:station:wmo:42907:2,2020-09-01T12:39:00Z,27.1318,-90.3386,11.0,28.8,11111222
Amerada Hess,ioos:station:wmo:42907:2,2020-09-01T12:49:00Z,27.1318,-90.3386,11.0,28.6,11111222
Amerada Hess,ioos:station:wmo:42907:2,2020-09-01T12:59:00Z,27.1318,-90.3386,11.0,28.7,11111222
Amerada Hess,ioos:station:wmo:42907:2,2020-09-01T13:09:00Z,27.1318,-90.3386,11.0,28.7,11111222
Amerada Hess,ioos:station:wmo:42907:2,2020-09-01T13:19:00Z,27.1318,-90.3386,11.0,28.7,11111222
Amerada Hess,ioos:station:wmo:42907:2,2020-09-01T13:29:00Z,27.1318,-90.3386,11.0,28.7,11111222
Amerada Hess,ioos:station:wmo:42907:2,2020-09-01T13:39:00Z,27.1318,-90.3386,11.0,28.7,11111222
Amerada Hess,ioos:station:wmo:42907:2,2020-09-01T13:49:00Z,27.1318,-90.3386,11.0,28.5,11111222
Amerada Hess,ioos:station:wmo:42907:2,2020-09-01T13:59:00Z,27.1318,-90.3386,11.0,28.6,11111222
Amerada Hess,ioos:station:wmo:42907:2,2020-09-01T14:09:00Z,27.1318,-90.3386,11.0,28.5,11111222
Amerada Hess,ioos:station:wmo:42907:2,2020-09-01T14:19:00Z,27.1318,-90.3386,11.0,28.6,11111222
Amerada Hess,ioos:station:wmo:42907:2,2020-09-01T14:29:00Z,27.1318,-90.3386,11.0,28.6,11111222
Amerada Hess,ioos:station:wmo:42907:2,2020-09-01T14:39:00Z,27.1318,-90.3386,11.0,28.7,11111222
Amerada Hess,ioos:station:wmo:42907:2,2020-09-01T14:49:00Z,27.1318,-90.3386,11.0,28.6,11111222
Amerada Hess,ioos:station:wmo:42907:2,2020-09-01T14:59:00Z,27.1318,-90.3386,11.0,28.7,11111222
Amerada Hess,ioos:station:wmo:42907:2,2020-09-01T15:09:00Z,27.1318,-90.3386,11.0,28.6,11111222
Amerada Hess,ioos:station:wmo:42907:2,2020-09-01T15:19:00Z,27.1318,-90.3386,11.0,28.6,11111222
Amerada Hess,ioos:station:wmo:42907:2,2020-09-01T15:29:00Z,27.1318,-90.3386,11.0,28.6,11111222
Amerada Hess,ioos:station:wmo:42907:2,2020-09-01T15:39:00Z,27.1318,-90.3386,11.0,28.6,11111222
Amerada Hess,ioos:station:wmo:42907:2,2020-09-01T15:49:00Z,27.1318,-90.3386,11.0,28.5,11111222
Amerada Hess,ioos:station:wmo:42907:2,2020-09-01T15:59:00Z,27.1318,-90.3386,11.0,28.4,11111222
Amerada Hess,ioos:station:wmo:42907:2,2020-09-01T16:09:00Z,27.1318,-90.3386,11.0,28.5,11111222
Amerada Hess,ioos:station:wmo:42907:2,2020-09-01T16:19:00Z,27.1318,-90.3386,11.0,28.5,11111222
Amerada Hess,ioos:station:wmo:42907:2,2020-09-01T16:29:00Z,27.1318,-90.3386,11.0,28.6,11111222
Amerada Hess,ioos:station:wmo:42907:2,2020-09-01T16:39:00Z,27.1318,-90.3386,11.0,28.6,11111222
Amerada Hess,ioos:station:wmo:42907:2,2020-09-01T17:06:00Z,27.1318,-90.3386,11.0,28.9,11111222
Amerada Hess,ioos:station:wmo:42907:2,2020-09-01T17:16:00Z,27.1318,-90.3386,11.0,28.9,11111222
Amerada Hess,ioos:station:wmo:42907:2,2020-09-01T17:26:00Z,27.1318,-90.3386,11.0,28.8,11111222
Amerada Hess,ioos:station:wmo:42907:2,2020-09-01T17:36:00Z,27.1318,-90.3386,11.0,28.7,11111222
Amerada Hess,ioos:station:wmo:42907:2,2020-09-01T17:46:00Z,27.1318,-90.3386,11.0,28.7,11111222
Amerada Hess,ioos:station:wmo:42907:2,2020-09-01T17:56:00Z,27.1318,-90.3386,11.0,28.5,11111222
Amerada Hess,ioos:station:wmo:42907:2,2020-09-01T18:06:00Z,27.1318,-90.3386,11.0,28.5,11111222
Amerada Hess,ioos:station:wmo:42907:2,2020-09-01T18:16:00Z,27.1318,-90.3386,11.0,28.5,11111222
Amerada Hess,ioos:station:wmo:42907:2,2020-09-01T18:26:00Z,27.1318,-90.3386,11.0,28.4,11111222
Amerada Hess,ioos:station:wmo:42907:2,2020-09-01T18:36:00Z,27.1318,-90.3386,11.0,28.5,11111222
Amerada Hess,ioos:station:wmo:42907:2,2020-09-01T18:46:00Z,27.1318,-90.3386,11.0,28.6,11111222
Amerada Hess,ioos:station:wmo:42907:2,2020-09-01T18:56:00Z,27.1318,-90.3386,11.0,28.8,11111222
Amerada Hess,ioos:station:wmo:42907:2,2020-09-01T19:06:00Z,27.1318,-90.3386,11.0,29.2,11111222
Amerada Hess,ioos:station:wmo:42907:2,2020-09-01T19:16:00Z,27.1318,-90.3386,11.0,29.1,11111222
Amerada Hess,ioos:station:wmo:42907:2,2020-09-01T19:26:00Z,27.1318,-90.3386,11.0,29.2,11111222
Amerada Hess,ioos:station:wmo:42907:2,2020-09-01T19:36:00Z,27.1318,-90.3386,11.0,29.2,11111222
Amerada Hess,ioos:station:wmo:42907:2,2020-09-01T19:46:00Z,27.1318,-90.3386,11.0,29.2,11111222
Amerada Hess,ioos:station:wmo:42907:2,2020-09-01T19:56:00Z,27.1318,-90.3386,11.0,29.1,11111222
Amerada Hess,ioos:station:wmo:42907:2,2020-09-01T20:06:00Z,27.1318,-90.3386,11.0,29.2,11111222
Amerada Hess,ioos:station:wmo:42907:2,2020-09-01T20:16:00Z,27.1318,-90.3386,11.0,28.9,11111222
Amerada Hess,ioos:station:wmo:42907:2,2020-09-01T20:26:00Z,27.1318,-90.3386,11.0,28.8,11111222
Amerada Hess,ioos:station:wmo:42907:2,2020-09-01T20:36:00Z,27.1318,-90.3386,11.0,28.6,11111222
Amerada Hess,ioos:station:wmo:42907:2,2020-09-01T20:46:00Z,27.1318,-90.3386,11.0,28.5,11111222
Amerada Hess,ioos:station:wmo:42907:2,2020-09-01T20:56:00Z,27.1318,-90.3386,11.0,28.4,11111222
Amerada Hess,ioos:station:wmo:42907:2,2020-09-01T21:06:00Z,27.1318,-90.3386,11.0,28.5,11111222
Amerada Hess,ioos:station:wmo:42907:2,2020-09-01T21:16:00Z,27.1318,-90.3386,11.0,28.5,11111222
Amerada Hess,ioos:station:wmo:42907:2,2020-09-01T21:26:00Z,27.1318,-90.3386,11.0,28.5,11111222
Amerada Hess,ioos:station:wmo:42907:2,2020-09-01T21:36:00Z,27.1318,-90.3386,11.0,28.5,11111222
Amerada Hess,ioos:station:wmo:42907:2,2020-09-01T21:46:00Z,27.1318,-90.3386,11.0,28.4,11111222
Amerada Hess,ioos:station:wmo:42907:2,2020-09-01T21:56:00Z,27.1318,-90.3386,11.0,28.4,11111222
Amerada Hess,ioos:station:wmo:42907:2,2020-09-01T22:06:00Z,27.1318,-90.3386,11.0,28.4,11111222
Amerada Hess,ioos:station:wmo:42907:2,2020-09-01T22:16:00Z,27.1318,-90.3386,11.0,28.4,11111222
Amerada Hess,ioos:station:wmo:42907:2,2020-09-01T22:26:00Z,27.1318,-90.3386,11.0,28.5,11111222
Amerada Hess,ioos:station:wmo:42907:2,2020-09-01T22:36:00Z,27.1318,-90.3386,11.0,28.3,11111222
Amerada Hess,ioos:station:wmo:42907:2,2020-09-01T22:46:00Z,27.1318,-90.3386,11.0,28.5,11111222
Amerada Hess,ioos:station:wmo:42907:2,2020-09-01T22:56:00Z,27.1318,-90.3386,11.0,28.6,11111222
Amerada Hess,ioos:station:wmo:42907:2,2020-09-01T23:06:00Z,27.1318,-90.3386,11.0,28.5,11111222
Amerada Hess,ioos:station:wmo:42907:2,2020-09-01T23:16:00Z,27.1318,-90.3386,11.0,28.8,11111222
Amerada Hess,ioos:station:wmo:42907:2,2020-09-01T23:26:00Z,27.1318,-90.3386,11.0,28.7,11111222
Amerada Hess,ioos:station:wmo:42907:2,2020-09-01T23:36:00Z,27.1318,-90.3386,11.0,28.7,11111222
Amerada Hess,ioos:station:wmo:42907:2,2020-09-01T23:46:00Z,27.1318,-90.3386,11.0,28.6,11111222
Amerada Hess,ioos:station:wmo:42907:2,2020-09-01T23:56:00Z,27.1318,-90.3386,11.0,28.8,11111222
Amerada Hess,ioos:station:wmo:42907:2,2020-09-02T00:06:00Z,27.1318,-90.3386,11.0,28.7,11111222
Amerada Hess,ioos:station:wmo:42907:2,2020-09-02T00:16:00Z,27.1318,-90.3386,11.0,28.6,11111222
Amerada Hess,ioos:station:wmo:42907:2,2020-09-02T00:26:00Z,27.1318,-90.3386,11.0,28.6,11111222
Amerada Hess,ioos:station:wmo:42907:2,2020-09-02T00:36:00Z,27.1318,-90.3386,11.0,28.7,11111222
Amerada Hess,ioos:station:wmo:42907:2,2020-09-02T00:46:00Z,27.1318,-90.3386,11.0,28.7,11111222
Amerada Hess,ioos:station:wmo:42907:2,2020-09-02T00:56:00Z,27.1318,-90.3386,11.0,28.7,11111222
Amerada Hess,ioos:station:wmo:42907:2,2020-09-02T01:06:00Z,27.1318,-90.3386,11.0,28.8,11111222
Amerada Hess,ioos:station:wmo:42907:2,2020-09-02T01:16:00Z,27.1318,-90.3386,11.0,28.6,11111222
Amerada Hess,ioos:station:wmo:42907:2,2020-09-02T01:26:00Z,27.1318,-90.3386,11.0,28.7,11111222
Amerada Hess,ioos:station:wmo:42907:2,2020-09-02T01:36:00Z,27.1318,-90.3386,11.0,28.6,11111222
Amerada Hess,ioos:station:wmo:42907:2,2020-09-02T01:46:00Z,27.1318,-90.3386,11.0,28.7,11111222
Amerada Hess,ioos:station:wmo:42907:2,2020-09-02T01:56:00Z,27.1318,-90.3386,11.0,28.4,11111222
Amerada Hess,ioos:station:wmo:42907:2,2020-09-02T02:06:00Z,27.1318,-90.3386,11.0,28.4,11111222
Amerada Hess,ioos:station:wmo:42907:2,2020-09-02T02:16:00Z,27.1318,-90.3386,11.0,28.4,11111222
Amerada Hess,ioos:station:wmo:42907:2,2020-09-02T02:26:00Z,27.1318,-90.3386,11.0,28.4,11111222
Amerada Hess,ioos:station:wmo:42907:2,2020-09-02T02:36:00Z,27.1318,-90.3386,11.0,28.4,11111222
Amerada Hess,ioos:station:wmo:42907:2,2020-09-02T02:46:00Z,27.1318,-90.3386,11.0,28.4,11111222
Amerada Hess,ioos:station:wmo:42907:2,2020-09-02T02:56:00Z,27.1318,-90.3386,11.0,28.4,11111222
Amerada Hess,ioos:station:wmo:42907:2,2020-09-02T03:06:00Z,27.1318,-90.3386,11.0,28.4,11111222
Amerada Hess,ioos:station:wmo:42907:2,2020-09-02T03:16:00Z,27.1318,-90.3386,11.0,28.4,11111222
Amerada Hess,ioos:station:wmo:42907:2,2020-09-02T03:26:00Z,27.1318,-90.3386,11.0,28.4,11111222
Amerada Hess,ioos:station:wmo:42907:2,2020-09-02T03:36:00Z,27.1318,-90.3386,11.0,28.5,11111222
Amerada Hess,ioos:station:wmo:42907:2,2020-09-02T03:46:00Z,27.1318,-90.3386,11.0,28.4,11111222
Amerada Hess,ioos:station:wmo:42907:2,2020-09-02T03:56:00Z,27.1318,-90.3386,11.0,28.3,11111222
Amerada Hess,ioos:station:wmo:42907:2,2020-09-02T04:06:00Z,27.1318,-90.3386,11.0,28.5,11111222
Amerada Hess,ioos:station:wmo:42907:2,2020-09-02T04:16:00Z,27.1318,-90.3386,11.0,28.5,11111222
Amerada Hess,ioos:station:wmo:42907:2,2020-09-02T04:26:00Z,27.1318,-90.3386,11.0,28.4,11111222
Amerada Hess,ioos:station:wmo:42907:2,2020-09-02T04:36:00Z,27.1318,-90.3386,11.0,28.4,11111222
Amerada Hess,ioos:station:wmo:42907:2,2020-09-02T04:46:00Z,27.1318,-90.3386,11.0,28.4,11111222
Amerada Hess,ioos:station:wmo:42907:2,2020-09-02T04:56:00Z,27.1318,-90.3386,11.0,28.5,11111222
Amerada Hess,ioos:station:wmo:42907:2,2020-09-02T05:06:00Z,27.1318,-90.3386,11.0,28.4,11111222
Amerada Hess,ioos:station:wmo:42907:2,2020-09-02T05:16:00Z,27.1318,-90.3386,11.0,28.5,11111222
Amerada Hess,ioos:station:wmo:42907:2,2020-09-02T05:26:00Z,27.1318,-90.3386,11.0,28.7,11111222
Amerada Hess,ioos:station:wmo:42907:2,2020-09-02T05:36:00Z,27.1318,-90.3386,11.0,28.6,11111222
Amerada Hess,ioos:station:wmo:42907:2,2020-09-02T05:46:00Z,27.1318,-90.3386,11.0,28.5,11111222
Amerada Hess,ioos:station:wmo:42907:2,2020-09-02T05:56:00Z,27.1318,-90.3386,11.0,28.5,11111222
Amerada Hess,ioos:station:wmo:42907:2,2020-09-02T06:06:00Z,27.1318,-90.3386,11.0,28.5,11111222
Amerada Hess,ioos:station:wmo:42907:2,2020-09-02T06:16:00Z,27.1318,-90.3386,11.0,28.6,11111222
Amerada Hess,ioos:station:wmo:42907:2,2020-09-02T06:26:00Z,27.1318,-90.3386,11.0,28.5,11111222
Amerada Hess,ioos:station:wmo:42907:2,2020-09-02T06:36:00Z,27.1318,-90.3386,11.0,28.6,11111222
Amerada Hess,ioos:station:wmo:42907:2,2020-09-02T06:46:00Z,27.1318,-90.3386,11.0,28.4,11111222
Amerada Hess,ioos:station:wmo:42907:2,2020-09-02T06:56:00Z,27.1318,-90.3386,11.0,28.7,11111222
Amerada Hess,ioos:station:wmo:42907:2,2020-09-02T07:06:00Z,27.1318,-90.3386,11.0,28.6,11111222
Amerada Hess,ioos:station:wmo:42907:2,2020-09-02T07:16:00Z,27.1318,-90.3386,11.0,28.6,11111222
Amerada Hess,ioos:station:wmo:42907:2,2020-09-02T07:26:00Z,27.1318,-90.3386,11.0,28.6,11111222
Amerada Hess,ioos:station:wmo:42907:2,2020-09-02T07:36:00Z,27.1318,-90.3386,11.0,28.6,11111222
Amerada Hess,ioos:station:wmo:42907:2,2020-09-02T07:46:00Z,27.1318,-90.3386,11.0,28.7,11111222
Amerada Hess,ioos:station:wmo:42907:2,2020-09-02T07:56:00Z,27.1318,-90.3386,11.0,28.6,11111222
Amerada Hess,ioos:station:wmo:42907:2,2020-09-02T08:06:00Z,27.1318,-90.3386,11.0,28.6,11111222
Amerada Hess,ioos:station:wmo:42907:2,2020-09-02T08:16:00Z,27.1318,-90.3386,11.0,28.7,11111222
Amerada Hess,ioos:station:wmo:42907:2,2020-09-02T08:26:00Z,27.1318,-90.3386,11.0,28.7,11111222
Amerada Hess,ioos:station:wmo:42907:2,2020-09-02T08:36:00Z,27.1318,-90.3386,11.0,28.6,11111222
Amerada Hess,ioos:station:wmo:42907:2,2020-09-02T08:46:00Z,27.1318,-90.3386,11.0,28.8,11111222
Amerada Hess,ioos:station:wmo:42907:2,2020-09-02T08:56:00Z,27.1318,-90.3386,11.0,28.6,11111222
Amerada Hess,ioos:station:wmo:42907:2,2020-09-02T09:06:00Z,27.1318,-90.3386,11.0,28.7,11111222
Amerada Hess,ioos:station:wmo:42907:2,2020-09-02T09:16:00Z,27.1318,-90.3386,11.0,28.7,11111222
Amerada Hess,ioos:station:wmo:42907:2,2020-09-02T09:26:00Z,27.1318,-90.3386,11.0,28.6,11111222
Amerada Hess,ioos:station:wmo:42907:2,2020-09-02T09:36:00Z,27.1318,-90.3386,11.0,28.6,11111222
Amerada Hess,ioos:station:wmo:42907:2,2020-09-02T09:46:00Z,27.1318,-90.3386,11.0,28.7,11111222
Amerada Hess,ioos:station:wmo:42907:2,2020-09-02T09:56:00Z,27.1318,-90.3386,11.0,28.6,11111222
Amerada Hess,ioos:station:wmo:42907:2,2020-09-02T10:06:00Z,27.1318,-90.3386,11.0,28.5,11111222
Amerada Hess,ioos:station:wmo:42907:2,2020-09-02T10:16:00Z,27.1318,-90.3386,11.0,28.7,11111222
Amerada Hess,ioos:station:wmo:42907:2,2020-09-02T10:26:00Z,27.1318,-90.3386,11.0,28.6,11111222
Amerada Hess,ioos:station:wmo:42907:2,2020-09-02T10:36:00Z,27.1318,-90.3386,11.0,28.5,11111222
Amerada Hess,ioos:station:wmo:42907:2,2020-09-02T10:46:00Z,27.1318,-90.3386,11.0,28.6,11111222
Amerada Hess,ioos:station:wmo:42907:2,2020-09-02T10:56:00Z,27.1318,-90.3386,11.0,28.5,11111222
Amerada Hess,ioos:station:wmo:42907:2,2020-09-02T11:06:00Z,27.1318,-90.3386,11.0,28.5,11111222
Amerada Hess,ioos:station:wmo:42907:2,2020-09-02T11:16:00Z,27.1318,-90.3386,11.0,28.6,11111222
Amerada Hess,ioos:station:wmo:42907:2,2020-09-02T11:26:00Z,27.1318,-90.3386,11.0,28.4,11111222
Amerada Hess,ioos:station:wmo:42907:2,2020-09-02T11:36:00Z,27.1318,-90.3386,11.0,28.6,11111222
Amerada Hess,ioos:station:wmo:42907:2,2020-09-02T11:46:00Z,27.1318,-90.3386,11.0,28.5,11111222
Amerada Hess,ioos:station:wmo:42907:2,2020-09-02T11:56:00Z,27.1318,-90.3386,11.0,28.4,11111222
Amerada Hess,ioos:station:wmo:42907:2,2020-09-02T12:06:00Z,27.1318,-90.3386,11.0,28.5,11111222
Amerada Hess,ioos:station:wmo:42907:2,2020-09-02T12:16:00Z,27.1318,-90.3386,11.0,28.4,11111222
Amerada Hess,ioos:station:wmo:42907:2,2020-09-02T12:26:00Z,27.1318,-90.3386,11.0,28.2,11111222
Amerada Hess,ioos:station:wmo:42907:2,2020-09-02T12:36:00Z,27.1318,-90.3386,11.0,28.3,11111222
Amerada Hess,ioos:station:wmo:42907:2,2020-09-02T12:46:00Z,27.1318,-90.3386,11.0,28.3,11111222
Amerada Hess,ioos:station:wmo:42907:2,2020-09-02T12:56:00Z,27.1318,-90.3386,11.0,28.3,11111222
Amerada Hess,ioos:station:wmo:42907:2,2020-09-02T13:06:00Z,27.1318,-90.3386,11.0,28.2,11111222
Amerada Hess,ioos:station:wmo:42907:2,2020-09-02T13:16:00Z,27.1318,-90.3386,11.0,28.3,11111222
Amerada Hess,ioos:station:wmo:42907:2,2020-09-02T13:26:00Z,27.1318,-90.3386,11.0,28.3,11111222
Amerada Hess,ioos:station:wmo:42907:2,2020-09-02T13:36:00Z,27.1318,-90.3386,11.0,28.4,11111222
Amerada Hess,ioos:station:wmo:42907:2,2020-09-02T13:46:00Z,27.1318,-90.3386,11.0,28.3,11111222
Amerada Hess,ioos:station:wmo:42907:2,2020-09-02T13:56:00Z,27.1318,-90.3386,11.0,28.3,11111222
Amerada Hess,ioos:station:wmo:42907:2,2020-09-02T14:06:00Z,27.1318,-90.3386,11.0,28.5,11111222
Amerada Hess,ioos:station:wmo:42907:2,2020-09-02T14:16:00Z,27.1318,-90.3386,11.0,28.4,11111222
Amerada Hess,ioos:station:wmo:42907:2,2020-09-02T14:26:00Z,27.1318,-90.3386,11.0,28.3,11111222
Amerada Hess,ioos:station:wmo:42907:2,2020-09-02T14:36:00Z,27.1318,-90.3386,11.0,28.3,11111222
Amerada Hess,ioos:station:wmo:42907:2,2020-09-02T14:46:00Z,27.1318,-90.3386,11.0,28.3,11111222
Amerada Hess,ioos:station:wmo:42907:2,2020-09-02T14:56:00Z,27.1318,-90.3386,11.0,28.3,11111222
Amerada Hess,ioos:station:wmo:42907:2,2020-09-02T15:06:00Z,27.1318,-90.3386,11.0,28.4,11111222
Amerada Hess,ioos:station:wmo:42907:2,2020-09-02T15:16:00Z,27.1318,-90.3386,11.0,28.4,11111222
Amerada Hess,ioos:station:wmo:42907:2,2020-09-02T15:26:00Z,27.1318,-90.3386,11.0,28.5,11111222
Amerada Hess,ioos:station:wmo:42907:2,2020-09-02T15:36:00Z,27.1318,-90.3386,11.0,28.4,11111222
Amerada Hess,ioos:station:wmo:42907:2,2020-09-02T15:46:00Z,27.1318,-90.3386,11.0,28.5,11111222
Amerada Hess,ioos:station:wmo:42907:2,2020-09-02T15:56:00Z,27.1318,-90.3386,11.0,28.4,11111222
Amerada Hess,ioos:station:wmo:42907:2,2020-09-02T16:06:00Z,27.1318,-90.3386,11.0,28.4,11111222
Amerada Hess,ioos:station:wmo:42907:2,2020-09-02T16:16:00Z,27.1318,-90.3386,11.0,28.4,11111222
Amerada Hess,ioos:station:wmo:42907:2,2020-09-02T16:26:00Z,27.1318,-90.3386,11.0,28.4,11111222
Amerada Hess,ioos:station:wmo:42907:2,2020-09-02T16:36:00Z,27.1318,-90.3386,11.0,28.5,11111222
Amerada Hess,ioos:station:wmo:42907:2,2020-09-02T16:46:00Z,27.1318,-90.3386,11.0,28.4,11111222
Amerada Hess,ioos:station:wmo:42907:2,2020-09-02T16:56:00Z,27.1318,-90.3386,11.0,28.3,11111222
Amerada Hess,ioos:station:wmo:42907:2,2020-09-02T17:06:00Z,27.1318,-90.3386,11.0,28.4,11111222
Amerada Hess,ioos:station:wmo:42907:2,2020-09-02T17:16:00Z,27.1318,-90.3386,11.0,28.4,11111222
Amerada Hess,ioos:station:wmo:42907:2,2020-09-02T17:26:00Z,27.1318,-90.3386,11.0,28.4,11111222
Amerada Hess,ioos:station:wmo:42907:2,2020-09-02T17:36:00Z,27.1318,-90.3386,11.0,28.4,11111222
Amerada Hess,ioos:station:wmo:42907:2,2020-09-02T17:46:00Z,27.1318,-90.3386,11.0,28.4,11111222